[[{"header":{"parameterUnit":"m.s-1","parameterCategory":1,"la1":30.2991,"la2":30.254,"lo1":-89.0895,"lo2":-89.0444,"dy":0.0017,"dx":0.0017,"nx":28,"ny":28,"refTime":"2025-05-31T21:00:00:Z","depth":0,"parameterNumber":2,"parameterNumberName":"U-component_of_WINDS"},"data":[0,0,0,0,0,0,0,0,0,0,0,0,0,0,0,0,0,0,0,0,0,0,0,0,0,0,0,0,0,0,0,0,0,0,0,0,0,0,0,0,0,0,0,0,0,0,0,0,0,0,0,0,0,0,0,0,0,0,2.7567,2.7568,0,2.7661,2.7662,2.7663,2.762,2.7618,2.7615,2.7613,2.7711,2.7716,2.7721,0,0,0,0,0,0,0,0,0,0,0,0,0,2.7349,2.7353,2.7566,2.7568,2.7569,2.766,2.7662,2.7663,2.762,2.7617,2.7615,2.7612,2.771,2.7715,2.7721,0,0,0,0,0,0,0,0,0,0,0,0,0,2.7443,2.7355,2.7566,2.7558,2.7559,2.766,2.7662,2.7663,2.7621,2.7617,2.7614,2.7611,2.7708,2.7715,2.7722,2.7837,0,0,2.7744,2.7747,0,0,0,0,0,0,0,0,2.7438,2.7451,2.7558,2.7559,2.756,2.7625,2.7621,2.7722,2.7622,2.7597,2.7613,2.7609,2.7685,2.7694,2.772,2.7842,2.7846,2.7745,2.7749,2.7752,2.7754,0,0,0,0,0,0,0,2.7432,2.7447,2.7604,2.756,2.7561,2.755,2.756,2.764,2.766,2.7599,2.7596,2.7608,2.7685,2.7713,2.7722,2.7847,2.7744,2.7751,2.7755,2.7758,2.8064,2.8067,0,0,0,0,0,0,2.7425,2.7442,2.7601,2.7607,2.7489,2.7557,2.7567,2.7608,2.7659,2.7664,2.7611,2.7606,2.7702,2.7713,2.7725,2.7859,2.7752,2.7759,2.7763,2.806,2.8064,2.8068,0,0,0,0,0,0,2.7421,2.744,2.7597,2.7524,2.7543,2.7564,2.761,2.7611,2.7639,2.7668,2.7671,2.7635,2.77,2.7715,2.7808,2.7862,2.7762,2.7769,2.8055,2.8061,2.8066,2.8132,0,0,0,0,0,0,2.7415,2.7438,2.7483,2.7525,2.7547,2.7679,2.7613,2.7616,2.7651,2.7645,2.7692,2.7696,2.7698,2.7798,2.7815,2.7871,2.7774,2.8051,2.8058,2.8065,2.8125,2.8139,2.8151,0,0,0,0,0,2.7407,2.7499,2.7485,2.7505,2.7603,2.7682,2.7695,2.7695,2.7656,2.77,2.7718,2.7695,2.7854,2.7808,2.7827,2.7885,2.8047,2.8056,2.8064,2.8119,2.8136,2.8151,0,0,0,0,0,0,2.7464,2.7504,2.749,2.7598,2.7637,2.7675,2.7731,2.7714,2.7765,2.7757,2.7756,2.7767,2.7862,2.7884,2.7831,2.7997,2.7945,2.7957,2.7979,2.7996,2.8009,2.8001,2.778,0,0,0,0,0,2.7489,2.755,2.7582,2.7675,2.7695,2.771,2.7744,2.7741,2.7781,2.7798,2.7823,2.7863,2.7921,2.7961,2.8017,2.8128,2.8136,2.8178,2.8191,2.8201,2.8212,2.8268,2.8286,2.8096,2.8096,2.8096,0,0,2.7542,2.7571,2.761,2.7687,2.7716,2.7779,2.7724,2.7793,2.7839,2.7809,2.7896,2.7917,2.7961,2.8063,2.8109,2.8084,2.8266,2.8212,2.822,2.8225,2.8279,2.8296,2.8312,2.8102,2.8101,2.81,0,0,2.7669,2.7699,2.7776,2.7807,2.7852,2.786,2.7879,2.7919,2.793,2.8019,2.7996,2.8051,2.8153,2.8184,2.8214,2.8349,2.8328,2.8368,2.8436,2.8491,2.8505,2.8518,2.8563,2.858,2.8379,2.8379,2.8379,0,2.7728,2.7821,2.7819,2.7889,2.7922,2.7896,2.7973,2.8003,2.8065,2.8087,2.8058,2.8183,2.8212,2.8318,2.8351,2.8377,2.8396,2.8362,2.8503,2.8517,2.8529,2.8571,2.8588,2.8383,2.8383,2.8382,2.8382,0,2.7891,2.7955,2.8013,2.807,2.811,2.8184,2.8192,2.8232,2.8225,2.8236,2.8325,2.8358,2.8418,2.8444,2.8438,2.8549,2.8531,2.8503,2.8449,2.8551,2.859,2.8607,2.8389,2.8388,2.8386,2.8385,0,0,2.8056,2.8109,2.813,2.8154,2.82,2.825,2.8322,2.8379,2.8412,2.8456,2.8513,2.8599,2.8572,2.8605,2.8603,2.8652,2.8752,2.8617,2.8618,2.8638,2.8871,2.8889,2.8908,2.8739,2.8742,2.8745,2.8866,0,2.8184,2.8308,2.8306,2.8421,2.8478,2.8453,2.8515,2.855,2.8562,2.8612,2.8626,2.8685,2.8647,2.8666,2.8713,2.873,2.8798,2.8721,2.8791,2.8794,2.8777,2.893,2.8951,2.9063,2.8882,2.8885,2.8886,0,2.8349,2.8394,2.8514,2.8548,2.8572,2.8628,2.8678,2.8727,2.8765,2.877,2.8806,2.8795,2.8866,2.8812,2.8908,2.8856,2.8885,2.8897,2.8901,2.8905,2.8844,2.8935,2.91,2.9115,2.8912,2.891,2.8908,0,2.8452,2.8544,2.8626,2.8648,2.8691,2.873,2.875,2.8784,2.8818,2.8862,2.8883,2.8936,2.8965,2.9005,2.9008,2.8969,2.9104,2.9052,2.9108,2.9108,2.9136,2.9134,2.9304,2.916,2.916,2.916,2.9159,0,2.8593,2.8666,2.8673,2.8723,2.8804,2.8801,2.8881,2.8897,2.8927,2.8979,2.8962,2.9012,2.9014,2.9064,2.9067,2.9144,2.9159,2.9163,2.9162,2.9163,2.9162,2.9179,2.917,2.9164,2.9163,2.9162,2.9162,0,2.8722,2.873,2.8817,2.8849,2.8859,2.8917,2.8944,2.8991,2.9001,2.9067,2.9082,2.9098,2.9156,2.9163,2.9232,2.9233,2.9325,2.9318,2.9311,2.9309,2.9364,2.9357,2.9549,2.9573,2.9417,2.9418,2.942,0,2.8809,2.8864,2.8902,2.8935,2.8956,2.901,2.9043,2.9042,2.9077,2.9122,2.9164,2.9219,2.9263,2.9357,2.9374,2.9425,2.9417,2.9481,2.9425,2.9422,2.9413,2.9409,2.9412,2.9491,2.9492,2.9494,2.9495,0,2.8962,2.8962,2.901,2.9059,2.9098,2.9137,2.9173,2.9201,2.9205,2.9245,2.9303,2.9337,2.9405,2.9459,2.9509,2.9529,2.9512,2.9513,2.9528,2.9527,2.9519,2.952,2.9337,2.9508,2.9507,2.9506,2.9505,2.9504,2.9071,2.9117,2.9149,2.9202,2.9229,2.9262,2.9306,2.9321,2.9369,2.9423,2.942,2.9483,2.9516,2.9581,2.9604,2.9653,2.9632,2.9655,2.966,2.9665,2.9668,2.9514,2.9662,2.9662,2.9662,2.9661,2.9661,0,2.9219,2.9238,2.9287,2.9336,2.9377,2.9358,2.9396,2.9431,2.9486,2.9519,2.9561,2.9626,2.9678,2.9698,2.9749,2.9783,2.9777,2.9796,2.9792,2.9796,2.9686,2.9666,2.9801,2.9801,2.9801,2.9801,2.9801,2.9801,2.9301,2.9377,2.938,2.9468,2.9487,2.9547,2.957,2.96,2.9625,2.9697,2.974,2.9752,2.9779,2.9831,2.9877,2.9881,2.9899,2.9922,2.9923,2.9819,2.9805,2.9791,2.9772,2.9927,2.9927,3.0028,3.0029,3.003]},{"header":{"parameterUnit":"m.s-1","parameterCategory":1,"la1":30.2991,"la2":30.254,"lo1":-89.0895,"lo2":-89.0444,"dy":0.0017,"dx":0.0017,"nx":28,"ny":28,"refTime":"2025-05-31T21:00:00:Z","depth":0,"parameterNumber":3,"parameterNumberName":"V-component_of_WINDS"},"data":[0,0,0,0,0,0,0,0,0,0,0,0,0,0,0,0,0,0,0,0,0,0,0,0,0,0,0,0,0,0,0,0,0,0,0,0,0,0,0,0,0,0,0,0,0,0,0,0,0,0,0,0,0,0,0,0,0,0,1.946,1.946,0,1.9471,1.9471,1.9471,1.9433,1.9432,1.9431,1.943,1.944,1.9441,1.9442,0,0,0,0,0,0,0,0,0,0,0,0,0,1.9403,1.9405,1.946,1.946,1.946,1.9471,1.9471,1.9471,1.9433,1.9432,1.943,1.9429,1.9439,1.9441,1.9443,0,0,0,0,0,0,0,0,0,0,0,0,0,1.9423,1.9405,1.946,1.9443,1.9441,1.9471,1.9471,1.9471,1.9434,1.9432,1.943,1.9428,1.9439,1.9441,1.9443,1.949,0,0,1.9449,1.945,0,0,0,0,0,0,0,0,1.9422,1.9425,1.9445,1.9444,1.9442,1.9449,1.9455,1.9478,1.9434,1.9436,1.943,1.9428,1.9444,1.9446,1.9451,1.949,1.9491,1.9449,1.945,1.9451,1.9452,0,0,0,0,0,0,0,1.942,1.9424,1.9464,1.9445,1.9444,1.9433,1.9434,1.9459,1.945,1.9436,1.9433,1.9435,1.9443,1.945,1.9451,1.9491,1.9449,1.9451,1.9452,1.9453,1.9567,1.9568,0,0,0,0,0,0,1.9422,1.9423,1.9464,1.9465,1.9428,1.9436,1.9437,1.9449,1.9449,1.9448,1.9437,1.9433,1.9447,1.9449,1.9452,1.9506,1.9451,1.9453,1.9454,1.9565,1.9567,1.9569,0,0,0,0,0,0,1.942,1.9426,1.9464,1.9443,1.9447,1.9439,1.9452,1.945,1.9456,1.945,1.9448,1.9445,1.9446,1.9449,1.948,1.9505,1.9454,1.9456,1.9563,1.9566,1.9568,1.9615,0,0,0,0,0,0,1.9419,1.9425,1.9444,1.9444,1.9449,1.9493,1.9454,1.9451,1.946,1.9456,1.9457,1.9456,1.9445,1.9477,1.9482,1.9507,1.9457,1.956,1.9564,1.9567,1.9611,1.9619,1.9625,0,0,0,0,0,1.9417,1.9457,1.9445,1.945,1.9471,1.9494,1.9497,1.9483,1.9462,1.948,1.9476,1.9456,1.9502,1.9481,1.9486,1.9512,1.9559,1.9563,1.9567,1.9608,1.9617,1.9625,0,0,0,0,0,0,1.946,1.9456,1.9443,1.9484,1.949,1.9488,1.951,1.9494,1.9506,1.9501,1.9484,1.9484,1.9519,1.9518,1.9495,1.9557,1.9527,1.9532,1.9556,1.9565,1.9572,1.9571,1.9459,0,0,0,0,0,1.9474,1.9493,1.9489,1.9526,1.9529,1.9519,1.9529,1.9518,1.9523,1.9525,1.9523,1.9528,1.9543,1.9554,1.9568,1.9611,1.961,1.9631,1.9638,1.9644,1.9649,1.967,1.9679,1.9583,1.9583,1.9582,0,0,1.9504,1.9504,1.9517,1.9534,1.9537,1.9557,1.9522,1.9544,1.9558,1.9528,1.9558,1.9556,1.9561,1.9598,1.9614,1.9599,1.9675,1.9649,1.9654,1.9656,1.9675,1.9684,1.9693,1.9585,1.9585,1.9584,0,0,1.9567,1.957,1.96,1.9604,1.9608,1.9601,1.9609,1.9609,1.9607,1.9636,1.9613,1.9629,1.9657,1.9661,1.9666,1.973,1.9711,1.9735,1.9772,1.9793,1.9801,1.9808,1.9829,1.9838,1.9739,1.9739,1.9739,0,1.9603,1.9633,1.9617,1.9641,1.9649,1.9622,1.9651,1.9656,1.9665,1.967,1.9653,1.9686,1.9687,1.9724,1.9739,1.9745,1.9752,1.9734,1.9801,1.9808,1.9814,1.9834,1.9843,1.9742,1.9742,1.9742,1.9741,0,1.9676,1.9697,1.972,1.9729,1.9739,1.9766,1.9754,1.9766,1.9754,1.9748,1.9777,1.9778,1.9791,1.9799,1.9787,1.9834,1.9824,1.9804,1.9774,1.9826,1.9845,1.9853,1.9746,1.9745,1.9744,1.9744,0,0,1.9768,1.9767,1.9776,1.978,1.9782,1.9798,1.9822,1.9835,1.9845,1.9852,1.9872,1.9895,1.9876,1.9883,1.9871,1.989,1.9939,1.9867,1.9867,1.988,1.9989,2.0003,2.0013,1.9926,1.9928,1.9929,1.9988,0,1.983,1.9873,1.9859,1.9902,1.992,1.9894,1.9915,1.9919,1.9914,1.9928,1.9923,1.9939,1.9914,1.9917,1.9934,1.9929,1.996,1.9925,1.9944,1.9945,1.9944,2.0023,2.0038,2.0094,1.9996,1.9997,1.9998,0,1.9908,1.9918,1.9963,1.9961,1.9968,1.9988,1.9997,2.0011,2.0014,2.0009,2.0016,2.0,2.0023,1.9993,2.0024,2.0,2.0007,2.0006,2.0007,2.0008,1.9974,2.0026,2.0112,2.012,2.0009,2.0008,2.0008,0,1.997,1.9994,2.0023,2.0027,2.0026,2.004,2.0041,2.0042,2.005,2.0058,2.0063,2.0074,2.008,2.0089,2.0076,2.0055,2.0109,2.0077,2.0105,2.0105,2.0117,2.0117,2.0205,2.0122,2.0122,2.0122,2.0122,0,2.004,2.0069,2.0051,2.0069,2.0099,2.0083,2.0113,2.011,2.0111,2.0128,2.0106,2.0122,2.0104,2.0118,2.0108,2.0135,2.0138,2.0134,2.0131,2.0136,2.0137,2.014,2.0136,2.0124,2.0124,2.0123,2.0123,0,2.0115,2.0104,2.0134,2.013,2.013,2.0152,2.0149,2.0165,2.0158,2.0179,2.0183,2.0172,2.0188,2.0176,2.0191,2.0184,2.0219,2.0211,2.0218,2.0216,2.0244,2.0241,2.0338,2.0349,2.026,2.0261,2.0261,0,2.016,2.0181,2.0179,2.0189,2.019,2.0206,2.0214,2.0197,2.0206,2.0211,2.0226,2.0239,2.0249,2.0275,2.0268,2.0279,2.027,2.0303,2.0272,2.0276,2.027,2.0269,2.027,2.031,2.0311,2.0312,2.0312,0,2.0242,2.0235,2.0248,2.0258,2.0267,2.0275,2.028,2.0289,2.0272,2.0283,2.0299,2.0306,2.0321,2.0334,2.0343,2.0342,2.0325,2.0322,2.0329,2.0334,2.0337,2.0335,2.0235,2.032,2.0319,2.0319,2.0318,2.0318,2.0303,2.032,2.032,2.0334,2.0337,2.0342,2.0356,2.0351,2.0363,2.0374,2.0364,2.0382,2.0383,2.0393,2.0394,2.0408,2.0394,2.0404,2.0406,2.0409,2.0413,2.0335,2.0409,2.0409,2.0409,2.0409,2.0408,0,2.0383,2.0382,2.0395,2.0402,2.0413,2.0395,2.04,2.041,2.0426,2.0429,2.0438,2.0455,2.0467,2.0461,2.0472,2.0484,2.0476,2.0487,2.0486,2.0486,2.0425,2.0418,2.0493,2.0493,2.0493,2.0493,2.0493,2.0493,2.0425,2.0453,2.0446,2.0473,2.0472,2.0489,2.0493,2.0498,2.0499,2.0519,2.0529,2.0525,2.0524,2.0534,2.0544,2.0542,2.0547,2.0561,2.0556,2.0499,2.049,2.0482,2.0475,2.0562,2.0562,2.0616,2.0616,2.0617]}]]